• MPC Preparation (Info)

  • MPEC 1996-M03 : 1994 JF1

    The following Minor Planet Electronic Circular may be linked-to from your own Web pages, but must not otherwise be redistributed electronically.

    A form allowing access to any MPEC is at the bottom of this page.


    Read MPEC 1996-M02 Read MPEC 1996-M04


    M.P.E.C. 1996-M03                                Issued 1996 June 21, 19:21 UT
    
         The Minor Planet Electronic Circulars contain information on unusual
             minor planets and routine data on comets.  They are published
       on behalf of Commission 20 of the International Astronomical Union by the
              Minor Planet Center, Smithsonian Astrophysical Observatory,
                              Cambridge, MA 02138, U.S.A.
    
                 BMARSDEN@CFA.HARVARD.EDU or GWILLIAMS@CFA.HARVARD.EDU
    
                                       1994 JF1
    
                               Revision to MPEC 1994-K02
    
    Observations:
         J94J01F VA1990 09 23.39642 20 43 56.03 -22 35 23.7          19   V      413
         J94J01F VA1990 09 23.44156 20 44 00.63 -22 35 07.1                      413
    
    Observer details:
    413 Siding Spring Observatory.  Observer P. McKenzie.  Measurer R. H. McNaught.
        1.2-m U.K. Schmidt telescope.
    
    First and last observations above in comparison with prediction:
    Residuals in seconds of arc (or two decimals in degrees), reference and Delta-T
    900923 413 0.07- 0.01-    900923 413 0.07- 0.01-    MPC 25083   +0.064 day
    
    Orbital elements:
    1994 JF1
    Id. R. H. McNaught (1990 observations)
    Epoch 1996 Apr. 27.0 TT = JDT 2450200.5                 Williams
    M 160.30336              (2000.0)            P               Q
    n   0.24338983     Peri.  153.28829     +0.05163317     +0.99726105
    a   2.5405891      Node   119.62974     -0.92680682     +0.06760151
    e   0.4813163      Incl.    3.49279     -0.37197195     -0.03000708
    P   4.05           H   17.0           G   0.15           U   2
    Residuals in seconds of arc
    900923 413  2.2-  1.8-    940601 111 (3.8+  0.4-)   940620 413  0.5-  0.6-
    900923 413  2.7+  0.7-    940601 111 (4.0+  0.4-)   940620 413  0.3+  0.2-
    940514 675  0.1-  2.0-    940601 658  0.3-  0.4-    940711 104  0.1+  1.0+
    940514 675  1.3-  0.6-    940601 658  0.3-  0.4-    940711 104  0.0   0.2+
    940515 675 (2.7+  4.1-)   940602 675  1.8+  1.5-    940711 104  0.0   0.9-
    940515 675  0.3-  1.3-    940602 675  0.7+  1.1-    940711 104  0.4-  1.5-
    940516 675  0.1+  1.6-    940602 360  1.1-  1.4+    940712 801  0.0   0.3+
    940516 675  0.1-  0.6-    940602 360  1.2-  1.2+    940712 801  0.4-  0.2+
    940522 817  0.6-  0.3-    940603 111  1.3-  1.5+    940713 801  0.1-  0.0
    940522 817  0.9-  0.4+    940603 111  1.3+  1.2+    940713 360  0.0   0.0
    940522 693  0.5-  0.0     940603 111  0.0   1.5+    940713 360  0.1-  0.0
    940522 693  0.5-  0.0     940603 111  0.1-  1.9+    940725 413  0.5-  0.0
    940522 693  0.4-  0.1+    940604 675  0.3-  0.4+    940725 413  0.7-  0.4+
    940528 817  0.4-  0.3-    940604 675  0.0   0.2+    940815 413  0.2-  0.1-
    940528 817  0.5-  0.2+    940607 675  0.5+  0.5+    940815 413  0.2-  0.2-
    940529 587  0.7+  0.6+    940607 675  0.7-  0.4+    940817 413  0.5+  0.1-
    940529 587  0.9-  1.3+    940608 557  0.3+  0.4-    940817 413  0.8+  0.2+
    940530 557  0.4-  0.7+    940608 557  1.0+  0.5-    940826 413  0.2-  0.2-
    940530 557  0.4-  0.5+    940608 557  0.9+  0.6-    940827 413  0.4-  0.5-
    940530 557  0.7-  0.8+    940608 557  0.6+  0.7-    940827 413  0.4-  0.2-
    940530 557  0.6-  0.8+    940609 801  0.6+  0.1+    940828 413  0.5-  0.0
    940531 587  0.4+  0.2+    940609 801  0.6+  0.0     940917 413  0.1-  1.3+
    940531 111  0.8+  1.0-    940617 413  0.4+  0.3-    940917 413  0.3-  0.3+
    940531 111  1.3+  0.5-    940617 413  0.5+  0.2-    940918 413  0.7+  0.4+
    940531 111  1.7+  0.4-    940618 413  0.5+  0.2-    940918 413  0.4+  0.5+
    940601 587  0.2+  0.4-    940618 413  0.5+  0.3-
    
    Gareth V. Williams           (C) Copyright 1996 MPC           M.P.E.C. 1996-M03
    

    Read MPEC 1996-M02 Read MPEC 1996-M04


    MPEC number:

    Enter an MPEC number in one of the following forms:

    • 1997-B01 (the full form)
    • J97B01 (the packed version of the full form)
    • B01 (the abbreviated form)